Simultaneous Nadir Overpasses (SNOs) Predictions

Prediction of SNOs between NPP and TERRA Satellite Orbit:

Table of predicted SNOs for the next 14.0 days since TLE Epoch: 6/9/2018
Index Date (NPP) Time (NPP) Lat,Lon (NPP) SZA (NPP ) Date (TERRA) Time (TERRA) Lat,Lon (TERRA) SZA (TERRA ) Distance(km) Time Diff (sec)
1 06/09/2018 11:29:59 -68.70,-174.32 134.35 06/09/2018 11:31:11 -68.59,-173.66 134.47 29.30 72
2 06/09/2018 12:20:37 68.24, -6.41 45.18 06/09/2018 12:20:42 68.26, -6.42 45.20 1.63 5
3 06/09/2018 13:11:18 -68.12, 161.07 134.95 06/09/2018 13:10:13 -68.10, 161.02 134.97 3.12 65
4 06/12/2018 03:46:46 -68.33, -58.05 134.92 06/12/2018 03:47:45 -68.33, -58.11 134.93 2.44 59
5 06/12/2018 04:37:30 68.19, 109.43 44.94 06/12/2018 04:37:12 68.21, 109.40 44.96 2.35 18
6 06/12/2018 05:28:01 -67.53, -82.43 135.74 06/12/2018 05:26:51 -67.61, -83.67 135.64 53.42 70
7 06/14/2018 20:03:41 -68.33, 57.72 135.06 06/14/2018 20:04:15 -68.34, 57.78 135.06 2.51 34
8 06/14/2018 20:54:24 68.15,-134.73 44.75 06/14/2018 20:53:43 68.16,-134.78 44.77 2.94 41
9 06/17/2018 11:30:00 68.74, 5.64 45.26 06/17/2018 11:31:11 68.67, 6.42 45.18 32.51 71
10 06/17/2018 12:20:35 -68.29, 173.56 135.21 06/17/2018 12:20:46 -68.29, 173.60 135.20 2.08 11
11 06/17/2018 13:11:18 68.10, -18.90 44.61 06/17/2018 13:10:14 68.12, -18.97 44.63 3.34 64
12 06/20/2018 03:46:48 68.37, 121.90 44.84 06/20/2018 03:47:47 68.34, 121.90 44.81 3.32 59
13 06/20/2018 04:37:29 -68.24, -70.61 135.30 06/20/2018 04:37:17 -68.25, -70.58 135.29 1.78 12
14 06/20/2018 05:28:03 67.57, 97.53 44.02 06/20/2018 05:26:53 67.62, 96.34 44.09 50.98 70
15 06/22/2018 20:03:41 68.33,-122.27 44.80 06/22/2018 20:04:16 68.35,-122.22 44.82 3.25 35
16 06/22/2018 20:54:22 -68.19, 45.22 135.34 06/22/2018 20:53:47 -68.21, 45.24 135.33 1.45 35




NCC Satellite Simultaneous Nadir Overpasses (SNOs) Prediction Service
